Weather History for Grand Rapids, MI

Change the Weather History Date:

Saturday, July 6, 2013

  Actual Average Record
Temperature  
Mean Temperature 77 °F 72 °F  
Max Temperature 86 °F 83 °F 104 °F (2012)
Min Temperature 67 °F 62 °F 41 °F (1983)
Degree Days  
Heating Degree Days 0 0  
Month to date heating degree days 1 0  
Since 1 June heating degree days 41 45  
Since 1 July heating degree days 1 0  
Cooling Degree Days 12 8  
Month to date cooling degree days 36 45  
Year to date cooling degree days 267 237  
Since 1 June cooling degree days 185 190  
Growing Degree Days 26 (Base 50)    
Moisture  
Dew Point 65 °F    
Average Humidity 68    
Maximum Humidity 87    
Minimum Humidity 48    
Precipitation  
Precipitation 0.00 in 0.12 in 2.02 in (1917)
Month to date precipitation 0.19 0.71  
Year to date precipitation 27.40 18.06  
Snow  
Snow 0.00 in 0.00 in 0.00 in (2006)
Month to date snowfall 0.0 0.0  
Since 1 June snowfall 0.0 0.0  
Since 1 July snowfall 0.0 0.0  
Snow Depth 0.00 in    
Sea Level Pressure  
Sea Level Pressure 30.05 in    
Wind  
Wind Speed 5 mph (SSW)    
Max Wind Speed 13 mph    
Max Gust Speed -    
Visibility 9 miles    
Events      
T = Trace of Precipitation, MM = Missing Value Source: NWS Daily Summary

Daily Weather History Graph

Daily Weather History Graph

Search for Another Location

Airport:

Trip Planner

Search our weather history database for the weather conditions in past years. The results will help you decide how hot, cold, wet, or windy it might be!

Date:

Astronomy

Jul. 06, 2013 Rise Set
Actual Time 6:10 AM EDT 9:23 PM EDT
Civil Twilight 5:35 AM EDT 9:57 PM EDT
Nautical Twilight 4:50 AM EDT 10:42 PM EDT
Astronomical Twilight 3:56 AM EDT 11:36 PM EDT
Moon 4:57 AM EDT (7/6) 8:02 PM EDT (7/6)
Length of Visible Light 16h 22m
Length of Day
15h 12m
Waning Crescent, 2% of the Moon is Illuminated
Jul 6
Waning Crescent
Jul 8
New
Jul 15
First Quarter
Jul 22
Full
Jul 29
Last Quarter

Hourly Weather History & Observations

Time (EDT) Temp. Heat Index Dew Point Humidity Pressure Visibility Wind Dir Wind Speed Gust Speed Precip Events Conditions
12:53 AM 70.0 °F - 62.1 °F 76% 30.07 in 10.0 mi SSE 3.5 mph - N/A   Clear
1:53 AM 70.0 °F - 63.0 °F 78% 30.07 in 9.0 mi SSE 3.5 mph - N/A   Clear
2:53 AM 69.1 °F - 64.0 °F 84% 30.08 in 6.0 mi South 8.1 mph - N/A   Haze
3:53 AM 71.1 °F - 64.9 °F 81% 30.07 in 7.0 mi South 5.8 mph - N/A   Clear
4:53 AM 70.0 °F - 64.0 °F 81% 30.07 in 6.0 mi South 4.6 mph - N/A   Haze
5:53 AM 68.0 °F - 64.0 °F 87% 30.08 in 6.0 mi South 4.6 mph - N/A   Mostly Cloudy
6:53 AM 69.1 °F - 64.0 °F 84% 30.09 in 4.0 mi Calm Calm - N/A   Haze
7:53 AM 73.0 °F - 66.0 °F 79% 30.09 in 6.0 mi South 5.8 mph - N/A   Haze
8:53 AM 77.0 °F - 66.0 °F 69% 30.09 in 10.0 mi WSW 3.5 mph - N/A   Scattered Clouds
9:53 AM 79.0 °F - 66.0 °F 64% 30.09 in 10.0 mi Calm Calm - N/A   Scattered Clouds
10:53 AM 81.0 °F 82.7 °F 64.9 °F 58% 30.08 in 10.0 mi SSW 4.6 mph - N/A   Mostly Cloudy
11:53 AM 82.9 °F 84.6 °F 64.9 °F 54% 30.08 in 10.0 mi WSW 5.8 mph - N/A   Mostly Cloudy
12:53 PM 82.9 °F 84.0 °F 63.0 °F 51% 30.07 in 10.0 mi SSE 6.9 mph - N/A   Mostly Cloudy
1:53 PM 84.0 °F 85.4 °F 64.0 °F 51% 30.05 in 10.0 mi SSE 8.1 mph - N/A   Mostly Cloudy
2:53 PM 84.0 °F 84.9 °F 63.0 °F 49% 30.04 in 10.0 mi South 9.2 mph - N/A   Mostly Cloudy
3:53 PM 84.9 °F 86.1 °F 64.0 °F 49% 30.03 in 10.0 mi South 6.9 mph - N/A   Overcast
4:53 PM 84.0 °F 85.8 °F 64.9 °F 53% 30.02 in 10.0 mi SW 5.8 mph - N/A   Overcast
5:53 PM 82.9 °F 84.6 °F 64.9 °F 54% 30.00 in 10.0 mi SSW 9.2 mph - N/A   Overcast
6:53 PM 82.0 °F 84.1 °F 66.0 °F 58% 29.99 in 10.0 mi SSW 9.2 mph - N/A   Overcast
7:53 PM 80.1 °F 82.1 °F 66.0 °F 62% 29.99 in 10.0 mi West 6.9 mph - N/A   Overcast
8:53 PM 78.1 °F - 64.9 °F 64% 29.99 in 10.0 mi West 3.5 mph - N/A   Overcast
9:53 PM 75.0 °F - 66.0 °F 73% 30.00 in 10.0 mi North 4.6 mph - N/A   Overcast
10:53 PM 75.0 °F - 66.0 °F 73% 30.02 in 10.0 mi WNW 3.5 mph - N/A   Overcast
11:53 PM 75.0 °F - 66.0 °F 73% 30.02 in 10.0 mi SSW 3.5 mph - N/A   Overcast